1281398426994,3.38985
1281398486994,3.40137
1281398546994,3.39523
1281398606994,3.36866
1281398666994,3.38618
1281398726994,3.40702
1281398786994,3.37794
1281398846994,3.41609
1281398906994,3.38198
1281398966994,3.38187
1281399026994,3.41631
1281399086994,3.41529
1281399146994,3.38317
1281399206994,3.40772
1281399266994,3.39306
1281399326994,3.37794
1281399386994,3.39582
1281399446994,3.36805
1281399506994,3.38716
1281399566994,3.37315
1281399626994,3.33940
1281399686994,3.38533
1281399746994,3.37221
1281399806994,3.36134
1281399866994,3.36134
1281399926994,3.39291
1281399986994,3.37023
1281400046994,3.38071
1281400106994,3.39889
1281400166994,3.38338
1281400226994,3.39086
1281400286994,3.35287
1281400346994,3.34720
1281400406994,3.38096
1281400466994,3.36342
1281400526994,3.36029
1281400586994,3.37625
1281400646994,3.34887
1281400706994,3.34022
1281400766994,3.32924
1281400826994,3.37841
1281400886994,3.37592
1281400946994,3.39494
1281401006994,3.37446
1281401066994,3.36361
1281401126994,3.37443
1281401186994,3.37009
1281401246994,3.36024
1281401306994,3.37239
1281401366994,3.35103
1281401426994,3.37738
1281401486994,3.36581
1281401546994,3.37457
1281401606994,3.35817
1281401666994,3.38369
1281401726994,3.38576
1281401786994,3.38344
1281401846994,3.35758
1281401906994,3.35259
1281401966994,3.38998
1281402027003,3.35392
1281402087003,3.35986
1281402147003,3.39270
1281402207003,3.36548
1281402267003,3.34444
1281402327003,3.35147
1281402387003,3.36721
1281402447003,3.37885
1281402507003,3.32619
1281402567003,3.38446
1281402627003,3.38812
1281402687003,3.36723
1281402747003,3.36312
1281402807003,3.33694
1281402867003,3.37737
1281402927003,3.34761
1281402987003,3.34790
1281403047003,3.35282
1281403107003,3.35083
1281403167003,3.33190
1281403227003,3.34740
1281403287003,3.38532
1281403347003,3.36897
1281403407003,3.36868
1281403467003,3.36343
1281403527003,3.35425
1281403587003,3.36313
1281403647003,3.35042
1281403707003,3.33803
1281403767003,3.34699
1281403827003,3.39110
1281403887003,3.34487
1281403947003,3.35965
1281404007003,3.36785
1281404067003,3.35407
1281404127003,3.35741
1281404187003,3.35203
1281404247003,3.34730
1281404307003,3.34712
1281404367003,3.36439
1281404427003,3.37003
1281404487003,3.36142
1281404547003,3.33170
1281404607003,3.36017
1281404667003,3.35917
1281404727003,3.31885
1281404787003,3.35924
1281404847003,3.37624
1281404907003,3.33891
1281404967003,3.34701
1281405027003,3.31368
1281405087003,3.34682
1281405147003,3.34006
1281405207003,3.32605
1281405267003,3.36779
1281405327003,3.34282
1281405387003,3.35442
1281405447003,3.36199
1281405507003,3.35767
1281405567003,3.38281
1281405627012,3.34360
1281405687012,3.36906
1281405747012,3.32907
1281405807012,3.33365
1281405867012,3.37230
1281405927012,3.32483
1281405987012,3.33258
1281406047012,3.34742
1281406107012,3.40565
1281406167012,3.37119
1281406227012,3.36030
1281406287012,3.35902
1281406347012,3.35855
1281406407012,3.36983
1281406467012,3.34703
1281406527012,3.33738
1281406587012,3.36438
1281406647012,3.35048
1281406707012,3.33361
1281406767012,3.33677
1281406827012,3.37749
1281406887012,3.34499
1281406947012,3.37358
1281407007012,3.34831
1281407067012,3.36176
1281407127012,3.36711
1281407187012,3.38452
1281407247012,3.34596
1281407307012,3.35443
1281407367012,3.38079
1281407427012,3.33062
1281407487012,3.34375
1281407547012,3.33044
1281407607012,3.35118
1281407667012,3.33803
1281407727012,3.34071
1281407787012,3.33209
1281407847012,3.34599
1281407907012,3.38866
1281407967012,3.34764
1281408027012,3.34782
1281408087012,3.35740
1281408147012,3.32436
1281408207012,3.32041
1281408267012,3.38231
1281408327012,3.34764
1281408387012,3.37039
1281408447012,3.34900
1281408507012,3.37015
1281408567012,3.32601
1281408627012,3.35824
1281408687012,3.39058
1281408747012,3.37817
1281408807012,3.36266
1281408867012,3.36669
1281408927012,3.39447
1281408987012,3.36107
1281409047012,3.35702
1281409107012,3.34068
1281409167012,3.31877
1281409227021,3.31579
1281409287021,3.28204
1281409827021,3.34682
1281409887021,3.38015
1281409947021,3.36396
1281410007021,3.34047
1281410067021,3.38279
1281410127021,3.34143
1281410187021,3.36510
1281410247021,3.33382
1281410307021,3.32385
1281410367021,3.37001
1281410427021,3.36712
1281410487021,3.34701
1281410547021,3.33482
1281410607021,3.35679
1281410667021,3.37235
1281410727021,3.34244
1281410787021,3.36354
1281410847021,3.34527
1281410907021,3.33803
1281410967021,3.34013
1281411027021,3.35089
1281411087021,3.37503
1281411147021,3.32983
1281411207021,3.37178
1281411267021,3.34326
1281411327021,3.35718
1281411387021,3.35454
1281411447021,3.35327
1281411507021,3.32615
1281411567021,3.36056
1281411627021,3.37867
1281411687021,3.33063
1281411747021,3.36470
1281411807021,3.35299
1281411867021,3.32430
1281411927021,3.32429
1281411987021,3.35956
1281412047021,3.35663
1281412107021,3.35807
1281412167021,3.32990
1281412227021,3.34118
1281412287021,3.34110
1281412347021,3.35526
1281412407021,3.35561
1281412467021,3.34525
1281412527021,3.37417
1281412587021,3.35008
1281412647021,3.35282
1281412707021,3.33489
1281412767021,3.35158
1281412827029,3.32553
1281412887029,3.35527
1281412947029,3.35050
1281413007030,3.35571
1281413067030,3.33650
1281413127029,3.34864
1281413187029,3.33088
1281413247029,3.36441
1281413307029,3.34352
1281413367029,3.29214
1281413427029,3.31497
1281413487029,3.35323
1281413547029,3.34532
1281413607029,3.32483
1281413667029,3.33684
1281413727029,3.33354
1281413787029,3.36455
1281413847029,3.33464
1281413907029,3.34058
1281413967029,3.32851
1281414027029,3.34865
1281414087029,3.32299
1281414147029,3.32898
1281414207029,3.32295
1281414267029,3.35189
1281414327030,3.35786
1281414387030,3.35692
1281414447029,3.31924
1281414507029,3.29972
1281414567029,3.34973
1281414627029,3.36202
1281414687029,3.37215
1281414747029,3.36148
1281414807029,3.33603
1281414867029,3.36415
1281414927029,3.34826
1281414987029,3.33661
1281415047029,3.33093
1281415107029,3.30979
1281415167029,3.34503
1281415227029,3.33312
1281415287029,3.33248
1281415347029,3.35492
1281415407029,3.34759
1281415467029,3.36955
1281415527029,3.33549
1281415587029,3.34309
1281415647029,3.33925
1281415707030,3.33008
1281415767030,3.32408
1281415827029,3.32613
1281415887029,3.32365
1281415947029,3.33226
1281416007029,3.33736
1281416067029,3.37283
1281416127029,3.34205
1281416187029,3.34186
1281416247029,3.34847
1281416307029,3.33591
1281416367029,3.34775
1281416427038,3.32474
1281416487038,3.32572
1281416547038,3.33198
1281416607038,3.32265
1281416667038,3.32220
1281416727038,3.32745
1281416787038,3.34250
1281416847038,3.34656
1281416907038,3.33231
1281416967038,3.33206
1281417027038,3.32401
1281417087038,3.32697
1281417147038,3.31887
1281417207038,3.32348
1281417267038,3.35669
1281417327038,3.33385
1281417387038,3.32192
1281417447038,3.34761
1281417507038,3.32694
1281417567038,3.30080
1281417627038,3.30429
1281417687038,3.33384
1281417747038,3.34221
1281417807038,3.31128
1281417867038,3.37669
1281417927038,3.32548
1281417987038,3.30258
1281418047038,3.34830
1281418107038,3.33457
1281418167038,3.31298
1281418227038,3.33606
1281418287038,3.27993
1281418347038,3.30549
1281418407038,3.33622
1281418467038,3.30915
1281418527038,3.33599
1281418587038,3.34603
1281418647038,3.33562
1281418707038,3.35695
1281418767038,3.32643
1281418827038,3.31185
1281418887038,3.33450
1281418947038,3.32021
1281419007038,3.33345
1281419067038,3.34367
1281419127038,3.34310
1281419187038,3.33106
1281419247038,3.35124
1281419307038,3.27533
1281419367038,3.33417
1281419427038,3.34694
1281419487038,3.32708
1281419547038,3.35404
1281419607038,3.33848
1281419667038,3.27790
1281419727038,3.31223
1281419787038,3.32655
1281419847038,3.33276
1281419907038,3.32971
1281419967038,3.30426
1281420027047,3.31942
1281420087047,3.34020
1281420147047,3.32603
1281420207047,3.32986
1281420267047,3.31823
1281420327047,3.33131
1281420387047,3.33431
1281420447047,3.31403
1281420507047,3.33013
1281420567047,3.29867
1281420627047,3.35756
1281420687047,3.32235
1281420747047,3.30882
1281420807047,3.31406
1281420867047,3.29171
1281420927047,3.31272
1281420987047,3.30479
1281421047047,3.32698
1281421107047,3.32559
1281421167047,3.32896
1281421227047,3.33569
1281421287047,3.32063
1281421347047,3.34117
1281421407047,3.33762
1281421467047,3.31137
1281421527047,3.30689
1281421587047,3.30830
1281421647047,3.32007
1281421707047,3.34293
1281421767047,3.33131
1281421827047,3.32625
1281421887047,3.34955
1281421947047,3.34101
1281422007047,3.32337
1281422067047,3.33603
1281422127047,3.33943
1281422187047,3.34961
1281422247047,3.33277
1281422307047,3.32021
1281422367047,3.32625
1281422427047,3.31931
1281422487047,3.31682
1281422547047,3.34701
1281422607047,3.31005
1281422667047,3.32993
1281422727047,3.34779
1281422787047,3.32249
1281422847047,3.34854
1281422907047,3.33636
1281422967047,3.33509
1281423027047,3.33648
1281423087047,3.33757
1281423147047,3.33268
1281423207047,3.34610
1281423267047,3.34122
1281423327047,3.34019
1281423387047,3.31996
1281423447047,3.33819
1281423507047,3.33378
1281423567047,3.33886
1281423627055,3.29286
1281423687055,3.34447
1281423747055,3.36383
1281423807055,3.30338
1281423867055,3.29162
1281423927055,3.31571
1281423987055,3.32170
1281424047055,3.35413
1281424107055,3.32481
1281424167055,3.35373
1281424227055,3.32041
1281424287055,3.36280
1281424347055,3.33854
1281424407055,3.33594
1281424467055,3.32934
1281424527055,3.34138
1281424587055,3.33829
1281424647055,3.34805
1281424707055,3.33813
1281424767055,3.34976
1281424827055,3.36060
1281424887055,3.34851
1281424947055,3.35748
1281425007055,3.34903
1281425067055,3.35487
1281425127055,3.34407
1281425187055,3.33561
1281425247055,3.34258
1281425307055,3.33801
1281425367055,3.32578
1281425427055,3.32364
1281425487055,3.33425
1281425547055,3.33901
1281425607055,3.33893
1281425667055,3.32744
1281425727055,3.33805
1281425787055,3.34787
1281425847055,3.31714
1281425907055,3.37083
1281425967055,3.35805
1281426027055,3.35526
1281426087055,3.35759
1281426147055,3.37226
1281426207055,3.33809
1281426267055,3.34198
1281426327055,3.33013
1281426387055,3.36221
1281426447055,3.35576
1281426507055,3.33767
1281426567055,3.34851
1281426627055,3.31946
1281426687055,3.34336
1281426747055,3.37359
1281426807055,3.33023
1281426867055,3.33135
1281426927055,3.34127
1281426987055,3.36319
1281427047055,3.34991
1281427107055,3.34483
1281427167055,3.35814
1281427227064,3.33450
1281427287064,3.33153
1281427347064,3.35632
1281427407064,3.31639
1281427467064,3.31244
1281427527064,3.32391
1281427587064,3.30086
1281427647064,3.36276
1281427707064,3.34050
1281427767064,3.33522
1281427827064,3.36740
1281427887064,3.35807
1281427947064,3.33196
1281428007064,3.33060
1281428067064,3.32575
1281428127064,3.31740
1281428187064,3.32209
1281428247064,3.30630
1281428307064,3.34891
1281428367064,3.34973
1281428427064,3.34572
1281428487064,3.33700
1281428547064,3.33916
1281428607064,3.33194
1281428667064,3.36991
1281428727064,3.34618
1281428787064,3.33511
1281428847064,3.34596
1281428907064,3.34700
1281428967064,3.33555
1281429027064,3.31814
1281429087064,3.32831
1281429147064,3.34144
1281429207064,3.35053
1281429267064,3.32611
1281429327064,3.33035
1281429387064,3.33552
1281429447064,3.30502
1281429507064,3.36541
1281429567064,3.33924
1281429627064,3.36682
1281429687064,3.32049
1281429747064,3.35500
1281429807064,3.34081
1281429867064,3.33388
1281429927064,3.36008
1281429987064,3.34666
1281430047064,3.33385
1281430107064,3.36137
1281430167064,3.33323
1281430227064,3.33351
1281430287064,3.34754
1281430347064,3.35002
1281430407064,3.35133
1281430467064,3.33755
1281430527064,3.35740
1281430587064,3.36131
1281430647064,3.32950
1281430707064,3.36402
1281430767064,3.33876
1281430827073,3.35509
1281430887073,3.36181
1281430947073,3.35899
1281431007073,3.35030
1281431067073,3.35802
1281431127073,3.32644
1281431187073,3.32132
1281431247073,3.36138
1281431307073,3.39285
1281431367073,3.39283
1281431427073,3.36814
1281431487073,3.35519
1281431547073,3.31188
1281431607073,3.29645
1281431667073,3.33909
1281431727073,3.32468
1281431787073,3.34695
1281431847073,3.35110
1281431907073,3.32914
1281431967073,3.32107
1281432027073,3.31293
1281432087073,3.29852
1281432147073,3.34042
1281432207073,3.34673
1281432267073,3.33581
1281432327073,3.58838
1281432387073,3.34237
1281432447073,3.32629
1281432507073,3.33904
1281432567073,3.32530
1281432627073,3.35636
1281432687073,3.35405
1281432747073,3.33825
1281432807073,3.28150
1281432867073,3.34137
1281432927073,3.31233
1281432987073,3.31745
1281433047073,3.35141
1281433107073,3.31580
1281433167073,3.32096
1281433227073,3.34224
1281433287073,3.31274
1281433347073,3.31192
1281433407073,3.38496
1281433467073,3.33480
1281433527073,3.34310
1281433587073,3.31077
1281433647073,3.33985
1281433707073,3.31187
1281433767073,3.30636
1281433827073,3.30538
1281433887073,3.32526
1281433947073,3.33160
1281434007073,3.30644
1281434067073,3.30890
1281434127073,3.31819
1281434187073,3.31333
1281434247073,3.31354
1281434307073,3.30792
1281434367073,3.31413
1281434427081,3.31193
1281434487081,3.29093
1281434547081,3.33110
1281434607081,3.27836
1281434667081,3.33130
1281434727081,3.31599
1281434787081,3.30916
1281434847081,3.30781
1281434907081,3.30735
1281434967081,3.28063
1281435027081,3.29332
1281435087081,3.31186
1281435147081,3.30045
1281435207081,3.31392
1281435267081,3.30142
1281435327081,3.29501
1281435387081,3.31977
1281435447081,3.31852
1281435507081,3.29976
1281435567081,3.28388
1281435627081,3.31697
1281435687081,3.29997
1281435747081,3.31302
1281435807081,3.27515
1281435867081,3.28711
1281435927081,3.32948
1281435987081,3.32538
1281436047081,3.28246
1281436107081,3.29185
1281436167081,3.31180
1281436227081,3.30353
1281436287081,3.31942
1281436347081,3.30398
1281436407081,3.30334
1281436467081,3.27537
1281436527081,3.31085
1281436587081,3.27279
1281436647081,3.29684
1281436707081,3.28950
1281436767081,3.30294
1281436827081,3.31362
1281436887081,3.30469
1281436947081,3.30278
1281437007081,3.33324
1281437067081,3.30045
1281437127081,3.27665
1281437187081,3.27921
1281437247081,3.32858
1281437307081,3.27336
1281437367081,3.25696
1281437427081,3.30273
1281437487081,3.29068
1281437547081,3.29167
1281437607081,3.29056
1281437667081,3.29648
1281437727081,3.27558
1281437787081,3.27663
1281437847081,3.27162
1281437907081,3.31825
1281437967081,3.29831
1281438027090,3.26601
1281438087090,3.26935
1281438147090,3.28743
1281438207090,3.28389
1281438267090,3.28560
1281438327090,3.27338
1281438387090,3.29453
1281438447090,3.29256
1281438507090,3.31286
1281438567090,3.30490
1281438627090,3.29581
1281438687090,3.28458
1281438747090,3.29022
1281438807090,3.27846
1281438867090,3.30405
1281438927090,3.28244
1281438987090,3.29967
1281439047090,3.27365
1281439107090,3.27011
1281439167090,3.30858
1281439227090,3.29409
1281439287090,3.27084
1281439347090,3.28784
1281439407090,3.30360
1281439467090,3.28841
1281439527090,3.28376
1281439587090,3.30159
1281439647090,3.29918
1281439707090,3.27679
1281439767090,3.30176
1281439827090,3.30255
1281439887090,3.26728
1281439947090,3.31436
1281440007090,3.31011
1281440067090,3.29690
1281440127090,3.30423
1281440187090,3.29366
1281440247090,3.30122
1281440307090,3.27856
1281440367090,3.27788
1281440427090,3.32204
1281440487090,3.27998
1281440547090,3.27536
1281440607090,3.29000
1281440667090,3.28387
1281440727090,3.31005
1281440787090,3.30352
1281440847090,3.28635
1281440907090,3.29914
1281440967090,3.28022
1281441027090,3.27276
1281441087090,3.26237
1281441147090,3.28607
1281441207090,3.29204
1281441267090,3.29399
1281441327090,3.24571
1281441387090,3.28417
1281441447090,3.29524
1281441507090,3.31098
1281441567090,3.27859
1281441627099,3.31265
1281441687099,3.29128
1281441747099,3.29872
1281441807099,3.29100
1281441867099,3.32098
1281441927099,3.31276
1281441987099,3.32172
1281442047099,3.30606
1281442107099,3.24946
1281442167099,3.30660
1281442227099,3.31375
1281442287099,3.31417
1281442347099,3.27591
1281442407099,3.27472
1281442467099,3.31168
1281442527099,3.27405
1281442587099,3.29343
1281442647099,3.30505
1281442707099,3.32941
1281442767099,3.31042
1281442827099,3.29408
1281442887099,3.32265
1281442947099,3.29951
1281443007099,3.29495
1281443067099,3.31592
1281443127099,3.32294
1281443187099,3.30084
1281443247099,3.28995
1281443307099,3.29674
1281443367099,3.29129
1281443427099,3.27271
1281443487099,3.30624
1281443547099,3.29085
1281443607099,3.28515
1281443667099,3.29714
1281443727099,3.29307
1281443787099,3.29161
1281443847099,3.31820
1281443907099,3.29897
1281443967099,3.28605
1281444027099,3.29137
1281444087099,3.26842
1281444147099,3.28197
1281444207099,3.27955
1281444267099,3.28786
1281444327099,3.31651
1281444387099,3.27739
1281444447099,3.27747
1281444507099,3.31006
1281444567099,3.28283
1281444627099,3.30584
1281444687099,3.25683
1281444747099,3.26819
1281444807099,3.26822
1281444867099,3.28973
1281444927099,3.31738
1281444987099,3.28187
1281445047099,3.23701
1281445107099,3.30977
1281445167099,3.30052
1281445227108,3.27252
1281445287108,3.30984
1281445347108,3.24430
1281445407108,3.28062
1281445467108,3.29744
1281445527108,3.31036
1281445587108,3.32063
1281445647108,3.30224
1281445707108,3.30677
1281445767108,3.31195
1281445827108,3.30040
1281445887108,3.30177
1281445947108,3.27539
1281446007108,3.30428
1281446067108,3.27976
1281446127108,3.33056
1281446187108,3.25297
1281446247108,3.31532
1281446307108,3.29331
1281446367108,3.30065
1281446427108,3.29560
1281446487108,3.31611
1281446547108,3.34129
1281446607108,3.30569
1281446667108,3.29489
1281446727108,3.29286
1281446787108,3.31548
1281446847108,3.32531
1281446907108,3.31800
1281446967108,3.32084
1281447027108,3.32121
1281447087108,3.28546
1281447147108,3.31810
1281447207108,3.31440
1281447267108,3.30880
1281447327108,3.32368
1281447387108,3.29107
1281447447108,3.30463
1281447507108,3.29470
1281447567108,3.32011
1281447627108,3.30317
1281447687108,3.32526
1281447747108,3.35387
1281447807108,3.29960
1281447867108,3.34930
1281447927108,3.31408
1281447987108,3.31769
1281448047108,3.28970
1281448107108,3.31449
1281448167108,3.31223
1281448227108,3.30056
1281448287108,3.26038
1281448347108,3.33337
1281448407108,3.30641
1281448467108,3.27879
1281448527108,3.30247
1281448587108,3.27733
1281448647108,3.31126
1281448707108,3.29856
1281448767108,3.30185
1281448827117,3.31828
1281448887117,3.32769
1281448947117,3.33551
1281449007117,3.28048
1281449067117,3.30798
1281449127117,3.31854
1281449187117,3.30944
1281449247117,3.32790
1281449307117,3.34527
1281449367117,3.31580
1281449427117,3.30745
1281449487117,3.32155
1281449547117,3.29804
1281449607117,3.29437
1281449667117,3.29568
1281449727117,3.30226
1281449787117,3.32233
1281449847117,3.33768
1281449907117,3.29964
1281449967117,3.30432
1281450027117,3.32634
1281450087117,3.33657
1281450147117,3.30700
1281450207117,3.30316
1281450267117,3.31177
1281450327117,3.31597
1281450387117,3.30644
1281450447117,3.28062
1281450507117,3.34262
1281450567117,3.31233
1281450627117,3.30947
1281450687117,3.30215
1281450747117,3.31194
1281450807117,3.30969
1281450867117,3.30962
1281450927117,3.33228
1281450987117,3.31183
1281451047117,3.32781
1281451107117,3.30995
1281451167117,3.31776
1281451227117,3.31486
1281451287117,3.32252
1281451347117,3.31208
1281451407117,3.31200
1281451467117,3.30852
1281451527117,3.29531
1281451587117,3.32298
1281451647117,3.33136
1281451707117,3.33545
1281451767117,3.30449
1281451827117,3.30449
1281451887117,3.27627
1281451947117,3.26985
1281452007117,3.28827
1281452067117,3.31066
1281452127117,3.31230
1281452187117,3.31100
1281452247117,3.28898
1281452307117,3.28709
1281452367117,3.34265
1281452427127,3.30011
1281452487127,3.29395
1281452547127,3.28348
1281452607127,3.30349
1281452667127,3.31437
1281452727127,3.31447
1281452787127,3.30186
1281452847127,3.30987
1281452907127,3.32011
1281452967127,3.31409
1281453027127,3.31831
1281453087127,3.31734
1281453147127,3.33719
1281453207127,3.29656
1281453267127,3.30959
1281453327127,3.30241
1281453387127,3.31531
1281453447127,3.31099
1281453507127,3.30297
1281453567127,3.31525
1281453627127,3.32631
1281453687127,3.31169
1281453747127,3.30866
1281453807127,3.29102
1281453867127,3.31104
1281453927127,3.32024
1281453987127,3.30611
1281454047127,3.30778
1281454107127,3.30376
1281454167127,3.29067
1281454227127,3.28061
1281454287127,3.32440
1281454347127,3.31800
1281454407127,3.29972
1281454467127,3.33703
1281454527127,3.33703
1281454587127,3.26109
1281454647127,3.30244
1281454707127,3.32419
1281454767127,3.32718
1281454827127,3.33145
1281454887127,3.36806
1281454947127,3.31892
1281455007127,3.31487
1281455067127,3.33128
1281455127127,3.30921
1281455187127,3.31539
1281455247127,3.32238
1281455307127,3.32243
1281455367127,3.29434
1281455427127,3.30292
1281455487127,3.32867
1281455547127,3.27594
1281455607127,3.32447
1281455667127,3.34376
1281455727127,3.31689
1281455787127,3.32155
1281455847127,3.31561
1281455907127,3.30286
1281455967127,3.32362
1281456027136,3.31855
1281456087136,3.31153
1281456147136,3.31707
1281456207136,3.30507
1281456267136,3.32841
1281456327136,3.31977
1281456387136,3.32358
1281456447136,3.31350
1281456507136,3.32368
1281456567136,3.32301
1281456627136,3.32263
1281456687136,3.28433
1281456747136,3.32315
1281456807136,3.28236
1281456867136,3.31513
1281456927136,3.30880
1281456987136,3.33774
1281457047136,3.32709
1281457107136,3.32914
1281457167136,3.30111
1281457227136,3.31839
1281457287136,3.30259
1281457347136,3.31933
1281457407136,3.31761
1281457467136,3.31968
1281457527136,3.31381
1281457587136,3.32687
1281457647136,3.30082
1281457707136,3.33166
1281457767136,3.29023
1281457827136,3.26561
1281457887136,3.27991
1281457947136,3.31265
1281458007136,3.30924
1281458067136,3.34108
1281458127136,3.30791
1281458187136,3.29486
1281458247136,3.32837
1281458307136,3.28981
1281458367136,3.30050
1281458427136,3.30677
1281458487136,3.33345
1281458547136,3.30476
1281458607136,3.28632
1281458667136,3.31228
1281458727136,3.32055
1281458787136,3.39763
1281458847136,3.37534
1281458907136,3.38872
1281458967136,3.36317
1281459027136,3.42770
1281459087136,3.42469
1281459147136,3.37983
1281459207136,3.40819
1281459267136,3.41084
1281459327136,3.38110
1281459387136,3.39828
1281459447136,3.40983
1281459507136,3.40155
1281459567136,3.37142
1281459627146,3.42716
1281459687146,3.38936
1281459747146,3.40481
1281459807146,3.37414
1281459867146,3.35008
1281459927146,3.34312
1281459987146,3.30974
1281460047146,3.34820
1281460107146,3.33667
1281460167146,3.32042
1281460227146,3.37311
1281460287146,3.33071
1281460347146,3.33850
1281460407146,3.33180
1281460467146,3.34420
1281460527146,3.35121
1281460587146,3.34576
1281460647146,3.32575
1281460707146,3.31525
1281460767146,3.33511
1281460827146,3.34651
1281460887146,3.30512
1281460947146,3.32863
1281461007146,3.35272
1281461067146,3.32165
1281461127146,3.34371
1281461187146,3.34729
1281461247146,3.31143
1281461307146,3.33040
1281461367146,3.31996
1281461427146,3.36466
1281461487146,3.35476
1281461547146,3.31389
1281461607146,3.32711
1281461667146,3.33844
1281461727146,3.32793
1281461787146,3.31375
1281461847146,3.31700
1281461907146,3.32672
1281461967146,3.32870
1281462027146,3.30741
1281462087146,3.33499
1281462147146,3.33754
1281462207146,3.32878
1281462267146,3.32570
1281462327146,3.34955
1281462387146,3.32532
1281462447146,3.33200
1281462507146,3.34339
1281462567146,3.32616
1281462627146,3.31705
1281462687146,3.32844
1281462747146,3.31689
1281462807146,3.37202
1281462867146,3.37294
1281462927146,3.34146
1281462987146,3.30079
1281463047146,3.30668
1281463107146,3.35241
1281463167146,3.31235
1281463227157,3.33515
1281463287157,3.34219
1281463347157,3.32503
1281463407157,3.33009
1281463467157,3.35080
1281463527157,3.31991
1281463587157,3.32418
1281463647157,3.35328
1281463707157,3.31925
1281463767157,3.31400
1281463827157,3.35792
1281463887157,3.35179
1281463947157,3.34220
1281464007157,3.34688
1281464067157,3.34650
1281464127157,3.32481
1281464187157,3.33604
1281464247157,3.33699